Temperature
4 4 4 4 4 4 4 4 4 4 4 4 4 5 5 5 5 5 5 5 5 5 4 4 4 4 4 4 4 4 4 3 3 3 3 3 3 3 3 3 3 3 3
4 4 4 4 3 3 4 4 4 4 4 4 4 4 4 4 4 4 4 4 4 4 4 4 4 4 3 3 3 3 3 3 3 2 2 2 2 2 2 2 2 2 2
4 3 3 3 3 3 3 3 3 3 3 3 3 4 4 3 3 3 3 3 3 3 3 3 3 3 3 3 3 3 3 2 2 2 2 2 2 2 2 2 2 2 2
3 3 3 3 3 3 2 2 3 3 3 3 3 3 3 3 3 3 3 3 3 3 3 3 2 3 2 2 2 2 2 2 2 1 1 1 1 1 1 1 1 1 1
3 3 3 3 2 2 2 2 2 2 2 2 2 2 2 2 2 2 2 2 2 2 2 2 2 2 2 2 2 1 1 1 1 1 0 0 0 0 0 0 0 0 0
2 2 2 2 2 2 2 2 2 2 2 2 2 2 2 2 2 2 2 2 2 2 2 1 1 1 1 1 1 1 1 0 0 -0 -0 -0 -1 -1 -1 -1 -1 -1 -1
2 2 2 2 2 1 1 1 1 1 1 1 1 1 1 1 1 1 1 1 1 1 1 1 1 1 1 1 0 0 0 -0 -0 -1 -1 -1 -1 -1 -1 -2 -2 -2 -2
2 2 1 1 1 1 1 1 1 1 1 1 1 1 1 1 0 1 0 0 0 0 0 0 0 0 -0 -0 -0 -0 -1 -1 -1 -1 -1 -2 -2 -2 -2 -2 -2 -3 -2
1 1 1 1 1 1 1 0 0 0 0 0 0 0 0 0 -0 -0 -0 -0 -0 -0 -0 -0 -0 -1 -1 -1 -1 -1 -1 -1 -2 -2 -2 -2 -2 -3 -3 -3 -3 -3 -3
1 1 1 1 0 0 0 0 -0 -0 -0 -0 -0 -0 -0 -1 -1 -1 -1 -1 -1 -1 -1 -1 -1 -1 -2 -2 -2 -2 -2 -2 -2 -2 -2 -3 -3 -3 -3 -4 -4 -4 -4
1 1 0 0 0 -0 -0 -0 -0 -1 -1 -1 -1 -1 -1 -1 -1 -1 -1 -1 -2 -2 -2 -2 -2 -2 -2 -2 -2 -3 -3 -3 -3 -3 -3 -3 -3 -3 -4 -4 -4 -4 -5
0 0 0 -0 -0 -1 -1 -1 -1 -1 -1 -1 -1 -1 -2 -2 -2 -2 -2 -2 -2 -2 -2 -2 -2 -3 -3 -3 -3 -3 -3 -4 -4 -4 -4 -4 -4 -4 -4 -4 -5 -5 -5
-0 -0 -0 -1 -1 -1 -1 -1 -1 -2 -2 -2 -2 -2 -2 -2 -2 -3 -2 -3 -3 -3 -3 -3 -3 -3 -3 -4 -4 -4 -4 -4 -4 -4 -4 -4 -4 -5 -5 -5 -5 -5 -5
-0 -1 -1 -1 -1 -1 -2 -2 -2 -2 -2 -2 -2 -2 -3 -3 -3 -3 -3 -3 -3 -3 -3 -4 -4 -4 -4 -4 -4 -5 -5 -5 -5 -5 -5 -5 -5 -5 -5 -5 -6 -6 -5
-1 -1 -1 -1 -1 -2 -2 -2 -2 -2 -3 -3 -3 -3 -3 -3 -3 -3 -4 -4 -4 -4 -4 -4 -4 -4 -5 -5 -5 -5 -5 -5 -5 -5 -6 -6 -6 -6 -6 -6 -6 -6 -6
-1 -1 -1 -2 -2 -2 -2 -3 -3 -3 -3 -3 -3 -3 -4 -4 -4 -4 -4 -4 -4 -4 -4 -4 -5 -5 -5 -5 -5 -5 -6 -6 -6 -6 -6 -6 -6 -6 -6 -7 -7 -7 -7
-2 -2 -2 -2 -2 -3 -3 -3 -3 -3 -4 -4 -4 -4 -4 -4 -4 -4 -4 -4 -5 -5 -5 -5 -5 -5 -5 -5 -6 -6 -6 -6 -6 -6 -6 -6 -7 -7 -7 -7 -7 -7 -7
-2 -2 -2 -2 -3 -3 -3 -4 -4 -4 -4 -4 -4 -4 -4 -4 -4 -5 -5 -5 -5 -5 -5 -5 -5 -6 -6 -6 -6 -6 -6 -6 -6 -6 -7 -7 -7 -7 -7 -7 -7 -7 -7
-3 -3 -3 -3 -3 -4 -4 -4 -4 -4 -4 -4 -4 -4 -5 -5 -5 -5 -5 -5 -5 -5 -6 -6 -6 -6 -6 -6 -6 -6 -6 -7 -7 -7 -7 -7 -7 -7 -7 -7 -8 -8 -8
-3 -3 -3 -4 -4 -4 -4 -4 -4 -5 -5 -5 -5 -5 -5 -5 -5 -5 -5 -5 -6 -6 -6 -6 -6 -6 -6 -6 -7 -7 -7 -7 -7 -7 -7 -7 -7 -8 -8 -8 -8 -8 -8
-3 -4 -4 -4 -4 -4 -4 -5 -5 -5 -5 -5 -5 -5 -5 -5 -5 -6 -6 -6 -6 -6 -6 -6 -6 -7 -7 -7 -7 -7 -7 -7 -7 -7 -7 -8 -8 -8 -8 -8 -8 -8 -8
-4 -4 -4 -4 -5 -5 -5 -5 -5 -5 -6 -6 -6 -6 -6 -6 -6 -6 -6 -6 -6 -7 -7 -7 -7 -7 -7 -7 -7 -7 -7 -7 -7 -7 -8 -8 -8 -8 -8 -8 -8 -8 -8
-4 -4 -5 -5 -5 -5 -5 -5 -6 -6 -6 -6 -6 -6 -6 -6 -6 -6 -7 -7 -7 -7 -7 -7 -7 -7 -7 -7 -7 -8 -7 -7 -8 -8 -8 -8 -8 -8 -8 -8 -9 -9 -9
-5 -5 -5 -5 -5 -6 -6 -6 -6 -6 -6 -6 -7 -7 -7 -7 -7 -7 -7 -7 -7 -7 -7 -7 -7 -7 -7 -7 -8 -8 -8 -8 -8 -8 -8 -8 -8 -8 -9 -9 -9 -9 -9
-5 -5 -5 -5 -6 -6 -6 -6 -6 -6 -7 -7 -7 -7 -7 -7 -7 -7 -7 -7 -7 -7 -8 -8 -8 -8 -8 -8 -8 -8 -8 -8 -8 -8 -8 -9 -9 -9 -9 -9 -9 -9 -9
-5 -5 -5 -6 -6 -6 -6 -6 -6 -7 -7 -7 -7 -7 -7 -7 -7 -7 -7 -7 -8 -8 -8 -8 -8 -8 -8 -8 -8 -8 -8 -8 -8 -8 -9 -9 -9 -9 -9 -9 -9 -9 -9
Wind_Speed
3 3 2 2 1 1 1 0 0 0 1 1 1 1 1 1 1 2 1 1 1 1 1 2 2 2 2 1 1 2 2 2 4 2 1 2 2 2 4 4 5 4 5
3 2 2 2 1 1 1 0 1 1 1 1 1 1 1 1 1 1 2 2 2 1 1 2 2 1 2 2 2 2 2 2 3 3 2 1 2 2 2 2 3 4 5
3 3 2 2 2 2 1 1 1 1 1 1 1 1 1 1 1 1 1 2 2 2 2 2 2 2 2 2 2 2 2 1 1 2 2 1 2 2 1 2 2 3 4
3 3 3 3 3 2 2 1 2 2 2 1 1 1 1 1 1 1 1 1 2 1 1 1 2 3 3 3 3 3 2 1 1 2 2 2 2 2 1 2 3 2 3
3 3 3 3 2 2 2 1 1 1 1 1 1 0 1 1 1 2 2 2 2 1 1 1 1 2 2 3 2 2 2 2 2 2 2 2 2 2 2 2 3 3 4
3 3 3 3 2 2 2 2 2 1 1 1 1 0 1 1 1 2 1 2 2 2 1 1 1 2 2 2 3 3 3 3 3 3 2 3 4 3 3 3 3 3 4
3 3 3 3 3 2 2 2 2 2 1 0 0 1 1 1 2 2 2 1 1 1 1 1 1 1 2 1 3 3 4 5 5 3 3 4 4 4 3 3 4 4 5
3 3 3 4 3 3 2 2 2 1 1 1 1 1 1 2 2 1 1 1 1 1 1 2 2 2 2 3 2 2 2 3 3 3 4 4 4 3 3 3 4 4 4
4 4 4 4 4 3 3 3 2 1 1 1 1 1 1 2 3 2 2 1 1 1 2 2 2 3 4 3 1 1 2 2 4 5 5 5 5 5 4 2 2 3 5
5 4 4 4 5 4 4 3 2 2 2 2 1 2 2 3 3 3 3 1 1 2 2 2 3 4 4 4 1 2 3 3 2 2 3 4 4 4 5 3 3 4 3
3 3 3 4 4 4 3 3 2 2 2 2 2 2 2 3 4 4 4 1 2 2 2 2 3 5 5 5 4 3 4 2 1 2 2 2 2 2 3 4 4 4 4
3 3 3 3 3 3 4 3 3 3 2 2 2 2 2 2 3 4 5 5 4 2 3 2 3 5 5 5 4 4 4 2 0 1 2 3 2 3 3 4 5 5 6
3 3 3 3 3 3 4 4 3 3 3 3 2 2 2 2 3 5 6 6 6 3 3 4 5 5 4 3 4 5 3 1 1 2 3 3 3 3 3 3 4 4 5
4 4 3 3 3 3 3 3 4 4 3 3 3 3 2 2 2 2 2 3 4 3 2 3 4 3 2 2 3 2 1 2 2 3 3 3 2 3 3 3 3 3 3
4 4 3 3 4 3 3 4 4 5 5 5 4 4 3 4 5 5 4 3 2 3 1 0 1 1 1 1 2 2 2 2 3 2 3 3 3 3 3 3 3 3 3
4 3 3 3 3 3 3 2 5 5 6 7 6 5 5 6 6 6 6 6 5 3 2 2 2 2 3 3 3 3 3 3 3 3 3 3 4 4 4 3 3 4 4
4 4 3 3 4 4 3 3 3 3 4 5 6 6 5 6 6 5 5 5 4 4 3 3 3 3 3 3 3 3 4 4 3 4 4 4 4 4 4 4 4 4 4
3 4 4 3 3 3 4 3 3 3 2 2 4 5 5 5 5 5 4 3 2 2 2 3 4 4 4 4 4 4 4 4 3 4 4 4 4 4 4 4 4 5 5
3 2 2 2 3 3 3 3 3 3 3 2 2 3 4 5 5 4 3 2 3 3 3 3 4 4 4 4 4 4 4 4 4 4 4 4 4 4 5 5 5 7 5
3 4 3 2 2 2 3 3 3 3 3 3 3 2 2 1 2 2 2 2 3 3 3 4 4 4 4 4 4 4 4 4 4 4 4 4 4 4 5 5 5 5 5
2 3 3 2 2 3 3 3 3 3 3 3 3 3 3 2 3 2 2 3 3 4 4 4 4 4 4 4 4 4 5 5 4 4 4 4 4 4 4 5 5 5 5
3 2 2 2 2 2 2 2 2 3 3 3 3 3 4 2 2 2 3 3 3 3 3 3 4 4 4 4 4 4 4 5 5 4 4 4 4 5 5 5 5 5 4
3 3 2 2 2 3 2 2 2 2 3 3 3 3 2 2 3 3 3 3 3 3 4 4 4 4 5 5 5 5 5 5 5 5 5 5 5 5 5 5 6 5 5
3 3 2 2 2 2 2 2 2 2 2 2 2 2 2 3 3 3 3 3 3 3 4 4 4 5 6 6 6 6 7 7 7 6 6 6 6 6 5 5 5 6 5
2 2 2 2 2 2 2 1 2 2 2 2 2 2 2 3 3 3 3 3 3 4 4 5 5 5 6 7 7 7 8 9 9 8 7 6 6 6 6 6 5 5 5
2 2 2 2 2 2 2 2 2 2 2 2 2 2 3 3 3 3 3 3 3 4 4 5 6 7 7 7 8 9 10 10 10 10 7 5 5 5 5 5 6 5 5
Wind_Direction
174 174 171 180 176 148 155 247 248 149 116 144 150 146 135 123 123 142 157 163 162 168 176 174 183 180 187 201 195 199 199 195 229 263 256 284 265 275 308 306 296 289 292
185 173 176 170 159 156 172 206 124 114 106 125 123 118 131 138 136 155 176 174 174 188 193 169 176 178 182 199 196 208 215 218 218 252 270 271 267 264 275 284 304 303 294
167 163 165 163 163 178 174 152 135 125 106 92 106 118 123 149 150 159 179 190 193 207 200 193 197 186 207 220 214 220 229 247 226 236 266 261 263 267 279 294 290 299 303
164 166 178 182 179 184 171 157 155 148 140 137 136 142 143 151 165 173 177 183 191 208 208 201 206 206 215 218 222 219 214 222 228 237 262 266 262 265 262 283 300 292 290
173 184 197 185 167 159 154 153 141 138 146 151 138 115 146 175 194 198 197 194 191 191 204 223 233 248 247 232 233 219 204 215 227 239 263 277 280 277 273 276 290 304 286
184 201 193 169 165 167 166 160 147 136 117 115 132 206 232 233 234 241 213 176 177 189 213 246 277 289 289 294 286 270 240 229 232 234 258 263 265 271 277 284 292 302 294
194 198 188 178 177 178 171 160 159 154 135 153 215 213 246 262 261 247 250 176 168 191 216 244 277 284 300 276 279 288 280 273 263 246 243 255 257 258 263 274 275 273 274
195 196 192 184 187 180 171 180 183 171 175 206 234 240 253 283 285 279 285 146 158 214 233 231 242 261 260 243 238 247 258 269 275 263 227 237 246 246 243 253 266 282 280
204 205 199 188 187 184 192 199 194 183 203 219 211 214 234 273 281 282 293 170 198 243 250 243 244 249 269 268 246 240 268 279 303 307 301 301 294 284 283 257 267 282 289
216 211 200 189 190 196 201 202 197 194 210 211 230 227 230 253 270 273 274 208 227 252 254 257 267 271 275 279 233 220 249 259 267 304 315 314 315 303 296 255 235 254 275
210 200 200 197 198 197 198 197 189 196 199 215 243 253 243 247 266 272 270 239 229 242 247 251 263 280 284 285 283 237 259 267 230 262 278 282 290 287 290 282 261 242 253
194 198 203 202 203 196 185 195 192 186 197 220 237 261 252 252 258 265 268 267 260 243 248 246 258 275 281 282 287 284 290 308 238 248 266 273 278 282 282 288 285 275 262
194 205 206 204 205 197 189 193 193 191 202 220 227 245 263 258 256 264 268 270 267 260 249 256 264 272 279 283 287 287 291 248 243 258 263 271 271 270 279 287 293 295 291
200 209 208 199 203 199 198 197 197 201 209 218 225 238 255 267 263 263 259 267 269 272 273 266 270 278 285 286 289 294 288 249 247 254 263 267 273 270 270 271 281 292 295
201 207 208 207 204 202 204 208 209 214 210 212 221 224 230 250 258 259 255 244 232 233 226 230 252 272 264 272 271 264 256 261 267 261 263 271 275 276 277 274 270 272 273
199 208 209 207 206 201 203 226 232 226 233 233 234 234 239 251 267 270 267 264 259 245 226 221 235 235 239 248 256 262 255 254 252 254 257 262 266 271 277 279 276 269 272
203 207 206 206 203 197 198 204 229 244 242 241 245 250 252 257 262 269 268 265 255 249 240 229 236 241 242 244 246 252 256 254 252 251 254 258 264 268 271 273 275 275 274
209 211 204 200 195 195 201 205 208 213 233 255 255 258 261 260 261 262 262 263 258 252 241 237 242 244 243 244 248 253 257 258 254 253 253 253 253 260 264 266 268 271 275
198 196 188 184 185 190 194 197 204 211 223 241 260 263 263 265 263 258 249 233 239 250 251 249 247 247 247 248 249 251 250 252 252 251 253 254 253 255 261 262 267 276 278
193 192 179 173 173 179 186 192 201 208 218 229 240 247 254 248 246 259 248 235 238 248 252 254 254 252 250 248 249 252 253 252 250 249 252 253 255 253 257 262 264 266 266
177 182 183 176 179 185 189 198 205 208 218 233 246 248 239 220 230 239 245 245 245 249 254 257 258 260 258 254 251 251 253 255 249 248 250 253 255 259 258 259 264 263 264
169 171 174 177 180 186 193 198 204 212 222 236 253 261 259 244 234 241 247 251 252 252 253 256 258 256 253 252 253 252 254 258 255 248 249 251 253 255 257 258 260 263 262
164 167 172 176 179 198 205 203 208 216 228 236 241 245 245 237 240 244 250 255 258 258 258 254 257 261 261 260 255 249 251 254 255 252 250 252 253 254 253 255 256 258 261
166 167 169 173 179 188 198 210 215 222 229 238 241 244 245 244 249 254 256 259 260 263 264 259 256 258 263 268 266 260 258 260 260 254 246 246 250 254 254 254 256 255 256
160 163 169 175 185 196 204 215 223 229 236 239 241 246 252 254 256 261 264 266 268 267 268 267 265 263 263 265 267 267 267 268 268 261 248 243 244 245 248 250 252 254 255
154 161 167 170 183 193 200 215 230 238 242 248 247 247 251 257 262 266 269 269 271 273 276 275 270 267 269 271 271 272 273 273 273 271 261 247 241 244 245 248 247 249 251
Height
1463 1464 1465 1466 1467 1468 1468 1469 1470 1471 1472 1473 1473 1474 1475 1475 1476 1477 1478 1478 1479 1480 1480 1481 1482 1484 1485 1486 1487 1488 1488 1489 1488 1489 1490 1491 1491 1491 1491 1491 1491 1490 1489
1461 1462 1463 1464 1465 1465 1466 1467 1468 1468 1469 1470 1470 1471 1472 1472 1473 1474 1474 1475 1475 1476 1476 1477 1478 1480 1480 1482 1483 1483 1484 1485 1485 1484 1485 1486 1486 1486 1486 1486 1486 1485 1484
1458 1459 1460 1462 1462 1463 1464 1465 1465 1466 1467 1467 1468 1468 1469 1469 1470 1470 1471 1471 1472 1472 1473 1474 1474 1476 1476 1477 1478 1479 1480 1480 1481 1480 1480 1481 1481 1481 1481 1481 1480 1480 1480
1456 1457 1458 1459 1460 1461 1462 1463 1463 1463 1464 1464 1465 1465 1466 1466 1467 1467 1468 1468 1469 1469 1469 1470 1471 1472 1473 1473 1474 1475 1475 1476 1476 1476 1476 1476 1476 1476 1476 1475 1474 1474 1474
1453 1455 1456 1457 1458 1458 1459 1460 1461 1461 1462 1462 1462 1462 1463 1463 1463 1464 1465 1465 1465 1466 1466 1467 1468 1468 1469 1469 1470 1470 1471 1471 1472 1472 1471 1471 1471 1471 1470 1470 1469 1469 1468
1451 1452 1453 1454 1455 1456 1456 1457 1458 1458 1459 1459 1459 1460 1460 1460 1461 1461 1461 1462 1462 1463 1463 1464 1464 1464 1465 1466 1466 1467 1467 1468 1468 1468 1467 1467 1467 1467 1466 1466 1465 1464 1462
1448 1449 1450 1451 1452 1452 1453 1454 1454 1455 1456 1456 1456 1457 1457 1457 1458 1458 1458 1459 1459 1460 1460 1461 1461 1461 1462 1462 1462 1462 1463 1463 1464 1464 1463 1463 1463 1463 1462 1461 1461 1460 1459
1445 1446 1447 1448 1448 1449 1450 1451 1451 1452 1452 1453 1453 1454 1454 1454 1455 1455 1455 1455 1456 1457 1457 1457 1458 1458 1458 1458 1458 1458 1459 1459 1459 1459 1459 1459 1459 1459 1458 1458 1457 1455 1454
1442 1442 1443 1444 1445 1446 1446 1447 1448 1448 1449 1449 1450 1451 1451 1451 1451 1452 1452 1452 1452 1453 1453 1454 1454 1454 1455 1455 1454 1454 1454 1455 1455 1455 1455 1455 1455 1454 1454 1453 1452 1450 1448
1438 1439 1440 1441 1441 1442 1443 1444 1445 1445 1446 1446 1447 1447 1447 1447 1448 1448 1449 1449 1449 1449 1450 1450 1450 1451 1451 1451 1451 1450 1450 1450 1450 1450 1450 1450 1450 1450 1449 1449 1447 1446 1444
1435 1436 1437 1437 1438 1438 1439 1440 1441 1442 1442 1442 1443 1443 1444 1444 1444 1445 1445 1445 1445 1446 1446 1446 1447 1447 1447 1447 1447 1446 1446 1446 1445 1445 1445 1445 1445 1445 1445 1444 1443 1442 1441
1432 1432 1433 1434 1434 1435 1435 1436 1437 1438 1438 1439 1439 1439 1440 1440 1441 1441 1442 1442 1442 1442 1442 1443 1443 1443 1443 1443 1443 1442 1442 1442 1441 1441 1441 1441 1440 1440 1439 1439 1438 1438 1437
1428 1428 1429 1430 1431 1431 1432 1432 1433 1434 1434 1435 1435 1435 1436 1437 1437 1438 1438 1438 1438 1438 1439 1439 1439 1439 1439 1439 1439 1438 1438 1438 1437 1437 1436 1436 1436 1435 1434 1434 1433 1432 1432
1424 1424 1425 1426 1426 1427 1428 1428 1429 1430 1430 1431 1431 1432 1432 1433 1433 1434 1434 1434 1434 1435 1435 1435 1435 1435 1435 1434 1435 1434 1434 1434 1434 1433 1432 1432 1431 1430 1429 1428 1427 1426 1425
1420 1420 1421 1422 1423 1423 1424 1424 1425 1426 1427 1428 1428 1428 1429 1429 1430 1431 1431 1430 1430 1431 1431 1431 1431 1430 1430 1430 1430 1430 1430 1430 1430 1429 1428 1427 1426 1426 1425 1424 1423 1422 1421
1416 1416 1417 1418 1419 1419 1420 1421 1422 1423 1423 1424 1425 1425 1425 1426 1426 1427 1427 1427 1427 1427 1427 1426 1426 1426 1426 1426 1426 1426 1426 1425 1425 1424 1423 1423 1422 1421 1420 1420 1419 1418 1416
1412 1412 1413 1414 1414 1415 1416 1417 1417 1419 1420 1420 1421 1421 1422 1422 1423 1423 1423 1423 1423 1423 1423 1422 1422 1422 1422 1422 1421 1421 1421 1420 1420 1419 1419 1418 1417 1417 1416 1415 1414 1413 1412
1408 1409 1409 1410 1411 1412 1413 1413 1414 1414 1415 1416 1417 1418 1418 1418 1419 1419 1419 1419 1419 1419 1418 1418 1418 1418 1418 1417 1417 1416 1416 1415 1415 1415 1414 1414 1413 1412 1411 1410 1410 1409 1407
1405 1405 1406 1407 1408 1409 1410 1410 1411 1411 1412 1412 1413 1414 1414 1414 1415 1415 1415 1415 1414 1414 1414 1414 1414 1414 1413 1413 1412 1412 1411 1411 1410 1410 1409 1409 1408 1408 1407 1406 1405 1404 1403
1401 1402 1403 1404 1405 1405 1406 1407 1407 1408 1408 1409 1409 1410 1410 1410 1410 1410 1410 1410 1410 1410 1410 1410 1410 1409 1409 1408 1407 1407 1406 1406 1405 1405 1404 1404 1404 1403 1402 1402 1401 1400 1399
1399 1399 1400 1401 1402 1402 1403 1404 1404 1405 1405 1405 1406 1406 1406 1406 1406 1406 1406 1406 1406 1406 1406 1405 1405 1404 1404 1403 1403 1402 1401 1401 1400 1400 1400 1399 1399 1398 1398 1397 1397 1396 1395
1396 1397 1398 1398 1399 1400 1400 1401 1401 1402 1402 1402 1402 1403 1403 1403 1402 1402 1402 1402 1402 1402 1401 1401 1400 1400 1399 1399 1398 1397 1396 1396 1396 1395 1395 1394 1394 1394 1393 1393 1392 1392 1391
1393 1394 1395 1396 1397 1397 1398 1398 1398 1399 1399 1399 1399 1399 1399 1399 1399 1399 1399 1398 1398 1398 1397 1396 1396 1395 1395 1394 1393 1392 1392 1391 1391 1391 1390 1390 1389 1389 1389 1388 1388 1387 1386
1391 1392 1393 1393 1394 1395 1395 1396 1396 1396 1396 1396 1396 1396 1396 1396 1396 1396 1395 1395 1394 1394 1393 1392 1391 1390 1390 1389 1388 1388 1387 1387 1386 1386 1386 1385 1385 1384 1384 1383 1383 1382 1382
1389 1390 1391 1391 1392 1392 1393 1393 1393 1394 1394 1394 1393 1393 1393 1393 1392 1392 1391 1391 1390 1390 1389 1388 1387 1386 1385 1384 1384 1383 1383 1382 1382 1382 1381 1381 1380 1380 1379 1379 1378 1378 1378
1387 1388 1389 1389 1390 1390 1390 1391 1391 1391 1391 1391 1390 1390 1390 1389 1389 1388 1388 1387 1386 1385 1385 1384 1383 1382 1381 1380 1379 1379 1378 1378 1378 1377 1377 1376 1376 1375 1375 1374 1374 1374 1373